BSTW Weather Reports


Display with metric or nautical units.
time (UTC)temp
F
wind
direction
speed
MPH
gust
MPH
rain 1hr
in
rain 24hr
in
rain mn
in
humidity
%
barometer
mb
20260510115540 69 0 0.0 2.0 0.00 0.24 0.00 88 1009.5
20260510115040 69 103 1.0 5.0 0.00 0.24 0.00 88 1009.4
20260510114551 69 110 2.0 5.0 0.00 0.24 0.00 88 1009.4
20260510114040 69 114 4.0 5.0 0.00 0.24 0.00 88 1009.5
20260510113539 69 115 4.0 6.0 0.00 0.24 0.00 87 1009.5
20260510113054 69 108 5.0 7.0 0.00 0.24 0.00 87 1009.4
20260510112540 69 150 5.0 7.0 0.00 0.24 0.00 87 1009.5
20260510112040 69 91 5.0 7.0 0.00 0.24 0.00 86 1009.5
20260510111546 69 137 5.0 6.0 0.00 0.24 0.00 86 1009.5
20260510111039 69 136 5.0 6.0 0.00 0.24 0.00 86 1009.6
20260510110539 69 118 5.0 7.0 0.00 0.24 0.00 86 1009.7
20260510110056 69 100 5.0 7.0 0.00 0.24 0.00 86 1009.7
20260510105539 69 112 4.0 7.0 0.00 0.24 0.00 85 1009.8
20260510105040 70 100 5.0 7.0 0.00 0.24 0.00 85 1009.7
20260510104548 70 110 4.0 6.0 0.00 0.24 0.00 85 1009.7
20260510104039 70 66 3.0 5.0 0.00 0.24 0.00 85 1009.7
20260510103539 70 77 4.0 5.0 0.00 0.24 0.00 85 1009.6
20260510103052 70 69 3.0 6.0 0.00 0.24 0.00 85 1009.8
20260510102540 70 66 3.0 6.0 0.00 0.24 0.00 84 1009.6
20260510102040 70 50 2.0 4.0 0.00 0.24 0.00 84 1009.5
20260510101600 70 66 2.0 4.0 0.00 0.24 0.00 84 1009.5
20260510101040 70 86 2.0 5.0 0.00 0.24 0.00 84 1009.5
20260510100539 71 69 2.0 5.0 0.00 0.24 0.00 83 1009.5
20260510100053 71 82 3.0 7.0 0.00 0.24 0.00 83 1009.4
20260510095539 71 121 4.0 9.0 0.00 0.24 0.00 83 1009.4
20260510095042 71 129 7.0 9.0 0.00 0.24 0.00 82 1009.2
20260510094552 71 131 6.0 9.0 0.00 0.24 0.00 83 1009.3
20260510094043 71 114 5.0 6.0 0.00 0.24 0.00 82 1009.4
20260510093540 72 116 2.0 4.0 0.00 0.24 0.00 81 1009.3
20260510093048 72 97 2.0 3.0 0.00 0.24 0.00 81 1009.3
20260510092540 71 111 2.0 3.0 0.00 0.24 0.00 82 1009.3
20260510092040 72 85 1.0 3.0 0.00 0.24 0.00 81 1009.3
20260510091543 71 87 2.0 3.0 0.00 0.24 0.00 82 1009.2
20260510091039 72 81 1.0 3.0 0.00 0.24 0.00 82 1009.3
20260510090539 72 0 3.0 3.0 0.00 0.24 0.00 81 1009.1
20260510090050 72 116 1.0 3.0 0.00 0.24 0.00 81 1009.1
20260510085540 72 82 0.0 2.0 0.00 0.24 0.00 81 1009.1
20260510085040 72 0 0.0 2.0 0.00 0.24 0.00 80 1009.1
20260510084601 73 0 0.0 4.0 0.00 0.24 0.00 80 1009.1
20260510084039 73 108 1.0 6.0 0.00 0.24 0.00 79 1009.1
20260510083539 73 122 3.0 6.0 0.00 0.24 0.00 79 1009.0
20260510083047 73 125 4.0 6.0 0.00 0.24 0.00 80 1009.1
20260510082538 73 113 4.0 7.0 0.00 0.24 0.00 80 1009.0
20260510082039 73 100 4.0 7.0 0.00 0.24 0.00 80 1009.0
20260510081607 73 124 5.0 7.0 0.00 0.24 0.00 80 1009.1
20260510081040 73 128 4.0 7.0 0.00 0.24 0.00 79 1009.1
20260510080540 73 136 3.0 5.0 0.00 0.24 0.00 79 1009.0
20260510080057 73 0 1.0 3.0 0.00 0.24 0.00 79 1008.9
20260510075539 74 86 0.0 3.0 0.00 0.24 0.00 78 1008.9
20260510075039 74 126 1.0 3.0 0.00 0.24 0.00 79 1008.9
20260510074552 74 117 1.0 2.0 0.00 0.24 0.00 79 1008.8
20260510074040 74 0 0.0 3.0 0.00 0.24 0.00 78 1008.9
20260510073539 74 72 0.0 3.0 0.00 0.24 0.00 78 1008.8
20260510073050 74 0 1.0 3.0 0.00 0.24 0.00 77 1008.8
20260510072539 74 129 0.0 3.0 0.00 0.24 0.00 77 1008.9
20260510072039 74 91 1.0 3.0 0.00 0.24 0.00 77 1009.0
20260510071548 74 201 1.0 3.0 0.00 0.24 0.00 77 1009.0
20260510071039 74 131 0.0 4.0 0.00 0.24 0.00 77 1009.1
20260510070540 75 0 1.0 5.0 0.00 0.24 0.00 76 1009.2
20260510065540 75 110 1.0 7.0 0.00 0.24 0.00 76 1009.0
20260510065039 75 94 3.0 8.0 0.00 0.24 0.00 76 1009.1
20260510064549 75 131 5.0 9.0 0.00 0.24 0.00 76 1009.1
20260510064039 76 83 4.0 9.0 0.00 0.24 0.00 76 1009.2
20260510063540 76 125 6.0 8.0 0.00 0.24 0.00 76 1009.3
20260510063047 76 127 5.0 8.0 0.00 0.24 0.00 76 1009.2
20260510062539 76 138 5.0 8.0 0.00 0.24 0.00 76 1009.2
20260510062039 76 139 4.0 7.0 0.00 0.24 0.00 75 1009.2
20260510061546 76 129 5.0 7.0 0.00 0.24 0.00 75 1009.2
20260510061039 76 113 5.0 9.0 0.00 0.24 0.00 75 1009.3
20260510060540 76 127 5.0 9.0 0.00 0.24 0.00 75 1009.2
20260510060049 76 127 5.0 9.0 0.00 0.24 0.00 74 1009.2
20260510055541 77 111 5.0 9.0 0.00 0.24 0.00 74 1009.2
20260510055040 77 137 2.0 9.0 0.00 0.24 0.00 73 1009.2
20260510054543 77 129 5.0 9.0 0.00 0.24 0.00 74 1009.1
20260510054040 77 135 4.0 8.0 0.00 0.24 0.00 74 1008.9
20260510053540 77 96 3.0 7.0 0.00 0.24 0.00 74 1008.8
20260510053052 77 188 3.0 8.0 0.00 0.24 0.00 74 1008.7
20260510052543 77 45 4.0 8.0 0.00 0.24 0.00 75 1008.7
20260510052039 77 122 4.0 9.0 0.00 0.24 0.00 75 1008.6
20260510051603 77 153 5.0 9.0 0.00 0.24 0.00 75 1008.7
20260510051039 77 141 3.0 8.0 0.00 0.24 0.00 75 1008.6
20260510050541 77 116 5.0 8.0 0.00 0.24 0.00 75 1008.6
20260510050105 78 127 4.0 8.0 0.00 0.24 0.00 74 1008.6
20260510045540 78 100 4.0 9.0 0.00 0.24 0.24 74 1008.5
20260510045040 78 100 4.0 9.0 0.00 0.24 0.24 74 1008.5
20260510044549 78 122 4.0 9.0 0.00 0.24 0.24 74 1008.5
20260510044040 78 138 4.0 9.0 0.00 0.24 0.24 73 1008.5
20260510043540 78 147 4.0 9.0 0.00 0.24 0.24 73 1008.5
20260510043048 78 131 6.0 13.0 0.00 0.24 0.24 73 1008.6
20260510042539 79 138 6.0 13.0 0.00 0.24 0.24 73 1008.5
20260510042039 79 169 7.0 12.0 0.00 0.24 0.24 73 1008.5
20260510041551 79 152 6.0 12.0 0.00 0.24 0.24 72 1008.5
20260510041039 80 132 7.0 12.0 0.00 0.24 0.24 71 1008.5
20260510040540 80 123 8.0 11.0 0.00 0.24 0.24 71 1008.5
20260510040055 80 133 7.0 10.0 0.00 0.24 0.24 70 1008.5
20260510035540 80 95 7.0 10.0 0.00 0.24 0.24 70 1008.2
20260510035040 80 139 6.0 10.0 0.00 0.24 0.24 69 1008.2
20260510034547 81 122 7.0 12.0 0.00 0.24 0.24 69 1008.3
20260510034040 81 143 7.0 12.0 0.00 0.24 0.24 69 1008.2
20260510033542 81 156 7.0 12.0 0.00 0.24 0.24 69 1008.2
20260510033055 81 127 6.0 15.0 0.00 0.24 0.24 69 1008.1
20260510032539 81 131 8.0 15.0 0.00 0.24 0.24 68 1008.1
20260510032040 81 100 8.0 13.0 0.00 0.24 0.24 68 1008.1
20260510031552 81 131 7.0 12.0 0.00 0.24 0.24 68 1008.0
20260510031037 81 79 7.0 12.0 0.00 0.24 0.24 67 1008.0
20260510030539 81 166 6.0 11.0 0.00 0.24 0.24 68 1007.9
20260510030100 82 80 6.0 12.0 0.00 0.24 0.24 67 1007.7
20260510025540 82 131 7.0 12.0 0.00 0.24 0.24 67 1007.7
20260510025040 82 122 7.0 12.0 0.00 0.24 0.24 67 1007.7
20260510024544 82 101 6.0 12.0 0.00 0.24 0.24 67 1007.6
20260510024041 82 156 6.0 11.0 0.00 0.24 0.24 67 1007.6
20260510023540 82 120 6.0 11.0 0.00 0.24 0.24 67 1007.5
20260510023048 82 98 6.0 11.0 0.00 0.24 0.24 67 1007.5
20260510022540 82 35 6.0 10.0 0.00 0.24 0.24 67 1007.4
20260510022039 82 113 6.0 11.0 0.00 0.24 0.24 67 1007.3
20260510021635 82 126 6.0 11.0 0.00 0.24 0.24 67 1007.3
20260510021039 83 108 6.0 12.0 0.00 0.24 0.24 67 1007.2
20260510020539 83 53 6.0 13.0 0.00 0.24 0.24 67 1007.2
20260510020046 83 66 7.0 13.0 0.00 0.24 0.24 67 1007.1
20260510015539 83 136 5.0 12.0 0.00 0.24 0.24 67 1006.9
20260510015039 83 105 8.0 12.0 0.00 0.24 0.24 67 1006.9
20260510014556 83 124 5.0 11.0 0.00 0.24 0.24 67 1006.9
20260510014039 84 147 7.0 11.0 0.00 0.24 0.24 65 1006.8
20260510013539 84 122 7.0 11.0 0.00 0.24 0.24 64 1006.7
20260510013057 84 101 6.0 8.0 0.00 0.24 0.24 64 1006.5
20260510012539 85 112 6.0 8.0 0.00 0.24 0.24 63 1006.5
20260510012040 85 101 5.0 7.0 0.00 0.24 0.24 62 1006.4
20260510011547 85 132 4.0 6.0 0.00 0.24 0.24 62 1006.4
20260510011040 86 120 3.0 6.0 0.00 0.24 0.24 61 1006.2
20260510010540 87 124 1.0 6.0 0.00 0.24 0.24 60 1006.2
20260510010056 87 113 3.0 6.0 0.00 0.24 0.24 59 1006.2
20260510005540 87 97 2.0 6.0 0.00 0.24 0.24 58 1006.1
20260510005040 88 141 0.0 4.0 0.00 0.24 0.24 57 1006.1
20260510004546 88 148 0.0 4.0 0.00 0.24 0.24 57 1006.1
20260510004039 89 0 1.0 5.0 0.00 0.24 0.24 56 1006.0
20260510003540 89 37 0.0 5.0 0.00 0.24 0.24 56 1005.9
20260510003044 89 101 1.0 5.0 0.00 0.24 0.24 56 1006.0
20260510002539 89 114 1.0 5.0 0.00 0.24 0.24 55 1005.8
20260510002040 89 89 0.0 6.0 0.00 0.24 0.24 55 1005.8
20260510001551 89 276 1.0 6.0 0.00 0.24 0.24 55 1005.9
20260510001040 89 259 3.0 6.0 0.00 0.24 0.24 56 1005.8
20260510000540 89 0 1.0 9.0 0.00 0.24 0.24 57 1005.8
20260510000050 88 82 4.0 11.0 0.00 0.24 0.24 57 1005.8
20260509235543 88 112 5.0 11.0 0.00 0.24 0.24 58 1006.0
20260509235039 89 128 5.0 11.0 0.00 0.24 0.24 58 1006.1
20260509234549 89 188 3.0 11.0 0.00 0.24 0.24 58 1006.1
20260509234041 89 118 5.0 11.0 0.00 0.24 0.24 58 1006.1
20260509233539 89 122 5.0 11.0 0.00 0.24 0.24 58 1006.1
20260509233053 89 130 6.0 12.0 0.00 0.24 0.24 57 1006.1
20260509232539 90 148 4.0 12.0 0.00 0.24 0.24 57 1006.0
20260509232039 91 153 5.0 12.0 0.00 0.24 0.24 55 1006.0
20260509231550 92 157 4.0 10.0 0.00 0.24 0.24 53 1005.8
20260509231040 92 213 1.0 6.0 0.00 0.24 0.24 51 1005.8
20260509230540 92 264 1.0 6.0 0.00 0.24 0.24 53 1005.8
20260509230050 92 96 1.0 6.0 0.00 0.24 0.24 52 1005.8
20260509225540 92 0 2.0 6.0 0.00 0.24 0.24 52 1005.8
20260509225039 93 131 2.0 5.0 0.00 0.24 0.24 52 1005.8
20260509224549 93 184 0.0 4.0 0.00 0.24 0.24 52 1005.7
20260509224039 93 100 1.0 4.0 0.00 0.24 0.24 52 1005.8
20260509223540 92 134 1.0 7.0 0.00 0.24 0.24 53 1005.8
20260509223052 92 114 1.0 7.0 0.00 0.24 0.24 52 1005.9
20260509222539 93 180 1.0 4.0 0.00 0.24 0.24 52 1005.9
20260509222040 93 199 1.0 7.0 0.00 0.24 0.24 53 1006.0
20260509221550 92 0 0.0 7.0 0.00 0.24 0.24 52 1006.0
20260509221040 92 118 2.0 7.0 0.00 0.24 0.24 52 1006.0
20260509220539 93 117 1.0 4.0 0.00 0.24 0.24 52 1006.0
20260509220052 94 153 0.0 5.0 0.00 0.24 0.24 51 1005.8
20260509215541 93 134 1.0 5.0 0.00 0.24 0.24 51 1005.8
20260509215040 94 243 1.0 5.0 0.00 0.24 0.24 51 1006.0
20260509214550 94 0 1.0 7.0 0.00 0.24 0.24 52 1006.0
20260509214039 94 115 1.0 7.0 0.00 0.24 0.24 51 1005.9
20260509213539 94 299 1.0 4.0 0.00 0.24 0.24 51 1006.0
20260509213105 93 0 0.0 6.0 0.00 0.24 0.24 53 1006.0
20260509212540 93 352 1.0 6.0 0.00 0.24 0.24 52 1006.0
20260509212040 92 229 1.0 5.0 0.00 0.24 0.24 53 1006.2
20260509211601 92 293 1.0 5.0 0.00 0.24 0.24 55 1006.2
20260509211040 92 20 1.0 9.0 0.00 0.24 0.24 55 1006.3
20260509210544 92 170 2.0 9.0 0.00 0.24 0.24 55 1006.3
20260509210050 93 243 2.0 9.0 0.00 0.24 0.24 55 1006.4
20260509205539 94 323 0.0 6.0 0.00 0.24 0.24 54 1006.5
20260509205040 93 61 0.0 4.0 0.00 0.24 0.24 54 1006.6
20260509204555 94 340 1.0 7.0 0.00 0.24 0.24 55 1006.8
20260509204040 93 321 0.0 7.0 0.00 0.24 0.24 55 1006.8
20260509203542 92 300 1.0 6.0 0.00 0.24 0.24 53 1007.0
20260509203048 92 0 1.0 5.0 0.00 0.24 0.24 55 1007.0
20260509202541 90 110 1.0 7.0 0.00 0.24 0.24 58 1007.1
20260509202039 89 6 2.0 8.0 0.00 0.24 0.24 57 1007.3
20260509201548 90 288 3.0 8.0 0.00 0.24 0.24 56 1007.4
20260509201039 91 351 3.0 7.0 0.00 0.24 0.24 57 1007.4
20260509200541 92 23 1.0 7.0 0.00 0.24 0.24 55 1007.5
20260509200052 91 52 1.0 7.0 0.00 0.24 0.24 57 1007.6
20260509195539 90 0 1.0 4.0 0.00 0.24 0.24 59 1007.7
20260509195039 88 0 0.0 6.0 0.00 0.24 0.24 61 1007.7
20260509194556 87 0 0.0 7.0 0.00 0.24 0.24 63 1007.9
20260509194040 87 283 4.0 8.0 0.00 0.24 0.24 62 1007.9
20260509193539 87 309 2.0 8.0 0.00 0.24 0.24 62 1007.9
20260509193051 87 297 3.0 8.0 0.00 0.24 0.24 62 1008.0
20260509192539 88 335 1.0 9.0 0.00 0.24 0.24 62 1008.1
20260509192039 86 295 4.0 9.0 0.00 0.24 0.24 63 1008.0
20260509191557 87 295 6.0 11.0 0.00 0.24 0.24 61 1008.0
20260509191040 88 245 1.0 11.0 0.00 0.24 0.24 63 1008.0
20260509190542 87 6 4.0 9.0 0.00 0.24 0.24 63 1008.1
20260509190050 87 301 4.0 9.0 0.00 0.24 0.24 63 1008.2
20260509185539 87 302 2.0 9.0 0.00 0.24 0.24 61 1008.2
20260509185039 88 283 2.0 6.0 0.00 0.24 0.24 62 1008.3
20260509184606 88 312 0.0 6.0 0.00 0.24 0.24 62 1008.3
20260509184039 87 359 1.0 7.0 0.00 0.24 0.24 66 1008.3
20260509183540 86 316 1.0 8.0 0.00 0.24 0.24 65 1008.3
20260509183055 86 359 2.0 8.0 0.00 0.24 0.24 67 1008.3
20260509182539 86 246 4.0 8.0 0.00 0.24 0.24 68 1008.5
20260509182039 87 0 4.0 8.0 0.00 0.24 0.24 65 1008.6
20260509181552 89 302 0.0 8.0 0.00 0.24 0.24 62 1008.6
20260509181040 90 358 2.0 8.0 0.00 0.24 0.24 61 1008.8
20260509180540 89 60 2.0 8.0 0.00 0.24 0.24 64 1008.8
20260509180056 87 0 0.0 7.0 0.00 0.24 0.24 65 1008.8
20260509175542 87 1 1.0 7.0 0.00 0.24 0.24 66 1008.8
20260509175039 88 317 1.0 8.0 0.00 0.24 0.24 66 1008.9
20260509174549 86 0 1.0 9.0 0.00 0.24 0.24 67 1008.9
20260509174038 86 333 5.0 9.0 0.00 0.24 0.24 68 1008.9
20260509173539 88 289 1.0 7.0 0.00 0.24 0.24 64 1009.0
20260509173102 88 291 1.0 6.0 0.00 0.24 0.24 65 1009.1
20260509172540 88 234 1.0 7.0 0.00 0.24 0.24 64 1009.1
20260509172040 88 304 0.0 7.0 0.00 0.24 0.24 64 1009.2
20260509171544 87 176 1.0 7.0 0.00 0.24 0.24 65 1009.2
20260509171043 88 257 1.0 5.0 0.00 0.24 0.24 65 1009.1
20260509170540 87 124 1.0 6.0 0.00 0.24 0.24 67 1009.2
20260509170050 86 319 1.0 6.0 0.00 0.24 0.24 68 1009.0
20260509165540 86 129 3.0 7.0 0.00 0.24 0.24 67 1008.9
20260509165039 86 115 1.0 9.0 0.00 0.24 0.24 70 1008.8
20260509164546 86 234 1.0 9.0 0.00 0.24 0.24 69 1009.0
20260509164040 85 83 3.0 8.0 0.00 0.24 0.24 69 1009.0
20260509163540 85 280 4.0 8.0 0.00 0.24 0.24 72 1008.9
20260509163055 85 108 2.0 9.0 0.00 0.24 0.24 71 1008.9
20260509162539 84 65 2.0 9.0 0.00 0.24 0.24 71 1009.1
20260509162039 84 276 3.0 9.0 0.00 0.24 0.24 71 1009.2
20260509161558 83 219 2.0 6.0 0.00 0.24 0.24 74 1009.2
20260509161040 83 224 2.0 6.0 0.00 0.24 0.24 76 1009.4
20260509160541 82 296 0.0 6.0 0.00 0.24 0.24 79 1009.5
20260509160049 81 0 2.0 7.0 0.00 0.24 0.24 80 1009.5
20260509155539 80 352 0.0 7.0 0.00 0.24 0.24 81 1009.5
20260509155039 79 71 1.0 7.0 0.00 0.24 0.24 85 1009.5
20260509154552 78 117 1.0 4.0 0.00 0.24 0.24 87 1009.7
20260509154040 78 0 1.0 4.0 0.00 0.24 0.24 87 1009.9
20260509153539 77 43 1.0 4.0 0.00 0.24 0.24 87 1009.8
20260509153058 77 24 1.0 4.0 0.02 0.24 0.24 91 1009.9
20260509152540 75 85 1.0 5.0 0.15 0.24 0.24 94 1009.9
20260509152040 74 101 2.0 5.0 0.24 0.24 0.24 96 1009.8
20260509151552 73 49 0.0 4.0 0.24 0.24 0.24 98 1009.8
20260509151039 72 113 1.0 4.0 0.24 0.24 0.24 98 1009.8
20260509150539 72 110 1.0 3.0 0.24 0.24 0.24 98 1009.7
20260509150051 71 109 0.0 3.0 0.24 0.24 0.24 97 1009.7
20260509145540 71 0 0.0 5.0 0.24 0.24 0.24 97 1009.7
20260509145040 72 0 0.0 5.0 0.24 0.24 0.24 96 1009.9
20260509144550 73 132 0.0 4.0 0.24 0.24 0.24 97 1009.9
20260509144040 73 90 2.0 4.0 0.24 0.24 0.24 96 1009.9
20260509143540 73 120 1.0 9.0 0.24 0.24 0.24 96 1009.9
20260509143050 73 133 2.0 9.0 0.21 0.21 0.21 95 1009.9
20260509142539 74 172 3.0 7.0 0.09 0.09 0.09 95 1009.9
20260509142039 74 163 2.0 8.0 0.00 0.00 0.00 95 1009.8
20260509141552 73 91 3.0 8.0 0.00 0.00 0.00 95 1009.6
20260509141041 73 108 3.0 6.0 0.00 0.00 0.00 95 1009.6
20260509140542 73 98 2.0 7.0 0.00 0.00 0.00 95 1009.6
20260509140103 73 117 5.0 7.0 0.00 0.00 0.00 95 1009.6
20260509135540 73 104 4.0 7.0 0.00 0.00 0.00 95 1009.5
20260509135040 73 73 2.0 6.0 0.00 0.00 0.00 95 1009.5
20260509134551 73 110 0.0 4.0 0.00 0.00 0.00 94 1009.4
20260509134040 73 0 1.0 6.0 0.00 0.00 0.00 95 1009.1
20260509133540 74 0 3.0 6.0 0.00 0.00 0.00 95 1008.9
20260509133052 74 103 2.0 5.0 0.00 0.00 0.00 95 1008.7
20260509132540 73 87 0.0 4.0 0.00 0.00 0.00 95 1008.7
20260509132040 73 0 1.0 4.0 0.00 0.00 0.00 95 1008.9
20260509131544 74 78 0.0 4.0 0.00 0.00 0.00 95 1009.2
20260509131039 74 114 1.0 4.0 0.00 0.00 0.00 96 1009.3
20260509130539 73 0 0.0 6.0 0.00 0.00 0.00 97 1009.1
20260509130049 73 141 0.0 7.0 0.00 0.00 0.00 98 1009.2
20260509125539 73 89 4.0 7.0 0.00 0.00 0.00 97 1009.2
20260509125039 73 96 3.0 6.0 0.00 0.00 0.00 97 1009.3
20260509124553 73 82 2.0 7.0 0.00 0.00 0.00 97 1009.4
20260509124039 72 23 2.0 8.0 0.00 0.00 0.00 97 1009.4
20260509123540 73 20 4.0 8.0 0.00 0.00 0.00 97 1009.6
20260509123046 73 64 3.0 9.0 0.00 0.00 0.00 96 1009.5
20260509122540 73 43 3.0 9.0 0.00 0.00 0.00 96 1009.6
20260509122039 73 4 4.0 10.0 0.00 0.00 0.00 96 1009.6
20260509121550 73 79 4.0 10.0 0.00 0.00 0.00 95 1009.4
20260509121041 73 84 4.0 8.0 0.00 0.00 0.00 95 1009.3
20260509120539 73 46 2.0 5.0 0.00 0.00 0.00 95 1009.1
20260509120047 73 94 2.0 5.0 0.00 0.00 0.00 95 1008.9